Location: Larkspur
(54.4391°N, 113.7691°W)
Time: 14:00:32
(UTC+00:00)

Oscar 19 - Pass Details

Date: 06 December 2023
Orbit: 771 x 789 km, 98.9° (Epoch: 01 March)

Event Time Altitude Azimuth Distance (km) Brightness Sun altitude
Rises 14:45:31 0° 9° (N) 3,273 13.7 -7.4°
Reaches altitude 10° 14:48:46 10° 347° (NNW) 2,344 12.7 -7.0°
Maximum altitude 14:51:37 15° 313° (NW) 2,005 12.2 -6.6°
Drops below altitude 10° 14:54:29 10° 280° (W) 2,344 12.5 -6.3°
Sets 14:57:44 0° 258° (WSW) 3,272 13.4 -5.9°
